Location: Newark
(41.1142°N, 73.9831°W)
Time: 11:47:50
(UTC+00:00)

Envisat - Visible Passes

Search period start: 20 September 2019 00:00
Search period end: 30 September 2019 00:00
Orbit: 764 x 766 km, 98.1° (Epoch: 20 September)

Date Brightness Start Highest point End Pass type
(mag) Time Alt. Az. Time Alt. Az. Time Alt. Az.
21 Sep 5.9 00:25:56 10° SW 00:29:01 16° W 00:32:08 10° NW visible
21 Sep 4.8 23:47:20 10° SSW 23:51:57 35° W 23:56:37 10° NNW visible
24 Sep 5.7 00:13:56 10° SW 00:17:40 20° W 00:21:25 10° NW visible
24 Sep 4.3 23:35:49 10° S 23:40:39 45° W 23:45:32 10° NNW visible
26 Sep 6.2 00:41:58 10° WSW 00:43:27 11° W 00:44:57 10° WNW visible
27 Sep 5.3 00:02:07 10° SSW 00:06:18 26° W 00:10:31 10° NW visible
27 Sep 3.8 23:24:23 10° S 23:29:21 58° W 23:34:23 10° NNW visible
29 Sep 6.0 00:29:17 10° WSW 00:32:04 15° W 00:34:51 10° WNW visible
29 Sep 4.9 23:50:27 10° SSW 23:54:58 32° W 23:59:32 10° NNW visible
